Regional Weather Roundup
Issued by NWS Sioux Falls, SD

Home | Current Version | Previous Version | Graphics & Text | Print | Product List | Glossary On
Versions: 1 2 3 4 5 6 7 8 9 10 11 12 13 14 15 16 17 18 19 20 21 22 23 24 25 26 27 28 29 30 31 32 33 34 35 36 37 38 39 40 41 42 43 44 45 46 47 48 49 50
124
ASUS43 KFSD 292102
RWRFSD

WEATHER ROUNDUP FOR SE SOUTH DAKOTA/SW MINNESOTA/NW IOWA
NATIONAL WEATHER SERVICE SIOUX FALLS SD
400 PM CDT SUN MAY 29 2016

NOTE: "FAIR" INDICATES FEW OR NO CLOUDS BELOW 12,000 FEET WITH NO
SIGNIFICANT WEATHER AND OR OBSTRUCTIONS TO VISIBILITY.


SDZ038>040-050-052>070-292200-
SOUTHEAST SOUTH DAKOTA

CITY           SKY/WX    TMP DP  RH WIND       PRES   REMARKS
BROOKINGS      SUNNY     75  49  39 NW10      30.03S
CHAMBERLAIN    NOT AVBL
HURON          SUNNY     78  51  38 NW6       30.02F
MADISON        FAIR      73  50  43 NW10      30.05S
MITCHELL       SUNNY     79  49  34 CALM      30.03F
SIOUX FALLS    MOSUNNY   78  50  37 NW9G17    30.03F
WINNER         FAIR      79  55  43 E7        30.03F
YANKTON        SUNNY     77  55  47 W6        30.03S
$$

MNZ071-072-080-081-089-090-097-098-292200-
SOUTHWEST MINNESOTA

CITY           SKY/WX    TMP DP  RH WIND       PRES   REMARKS
FAIRMONT       MOSUNNY   79  54  41 W18       30.00S
JACKSON        MOSUNNY   77  45  31 W15G24    30.02F
LUVERNE        SUNNY     75  43  31 NW8G17    30.04F
MARSHALL       SUNNY     78  46  32 NW17G28   30.00S
MONTEVIDEO     MOSUNNY   81  46  30 NW14G26   29.99S
PIPESTONE      SUNNY     77  41  27 N12G21    30.04S
REDWOOD FALLS  PTSUNNY   76  55  48 NW9       29.97S
TRACY          SUNNY     78  51  39 NW13G23   30.01F
WINDOM         MOSUNNY   79  50  36 CALM      30.01F
$$

IAZ001>003-012>014-020>022-031-032-NEZ013-014-SDZ071-292200-
NORTHWEST IOWA

CITY           SKY/WX    TMP DP  RH WIND       PRES   REMARKS
ESTHERVILLE    CLOUDY    76  62  62 W16       30.02F
SIOUX CITY     MOSUNNY   81  59  47 W10       30.03F
SPENCER        SUNNY     77  59  53 NW15      30.03F
STORM LAKE       N/A     81  54  39 W15G23    30.04F
$$

ABBREVIATIONS USED IN REMARKS
   TC - TEMPERATURE IN CELSIUS
  WCI - WIND CHILL INDEX
   HX - HEAT INDEX
  VSB - VISIBILITY





USA.gov is the U.S. government's official web portal to all federal, state and local government web resources and services.